Location: Castle Hill Houses
(40.8186°N, 73.8497°W)
Time: 16:57:29
(UTC+00:00)

ALOS - Pass Details

Date: 26 January 2020
Orbit: 683 x 686 km, 97.8° (Epoch: 26 February)

Event Time Altitude Azimuth Distance (km) Brightness Sun altitude
Rises 11:08:44 0° 359° (N) 3,057 5.5 -12.0°
Reaches altitude 10° 11:11:18 10° 346° (NNW) 2,136 4.5 -11.5°
Maximum altitude 11:15:02 25° 293° (WNW) 1,386 3.3 -10.8°
Drops below altitude 10° 11:18:47 10° 239° (WSW) 2,123 4.4 -10.2°
Sets 11:21:20 0° 226° (SW) 3,034 5.3 -9.7°
